EW5854 Weather Reports


time (UTC)temp
C
wind
direction
speed
KPH
gust
KPH
rain 1hr
cm
rain 24hr
cm
rain mn
cm
humidity
%
barometer
mb
20260507094509 6 115 0.0 0.0 0.00 0.00 0.00 100 1006.6
20260507093008 6 115 0.0 0.0 0.00 0.00 0.00 100 1006.4
20260507091507 6 115 0.0 0.0 0.00 0.00 0.00 100 1006.5
20260507090006 6 115 0.0 0.0 0.00 0.00 0.00 100 1006.6
20260507084506 7 115 0.0 0.0 0.00 0.00 0.00 100 1006.4
20260507083003 7 115 0.0 0.0 0.00 0.00 0.00 100 1006.0
20260507081500 7 115 0.0 0.0 0.00 0.00 0.00 100 1006.1
20260507074555 7 115 0.0 0.0 0.00 0.00 0.00 100 1006.7
20260507073046 7 115 0.0 0.0 0.00 0.00 0.00 100 1006.1
20260507071543 7 115 0.0 0.0 0.00 0.00 0.00 100 1006.2
20260507070045 7 115 0.0 0.0 0.00 0.00 0.00 100 1005.7
20260507064541 7 115 0.0 0.0 0.00 0.00 0.00 100 1005.8
20260507063043 7 115 0.0 0.0 0.00 0.00 0.00 100 1005.6
20260507061542 8 115 0.0 0.0 0.00 0.00 0.00 100 1005.6
20260507060039 8 115 0.0 0.0 0.00 0.00 0.00 100 1005.1
20260507054525 8 115 0.0 1.6 0.00 0.00 0.00 100 1005.2
20260507053024 8 115 0.0 1.6 0.00 0.00 0.00 100 1005.4
20260507051522 8 115 0.0 0.0 0.00 0.00 0.00 100 1005.9
20260507050027 8 115 0.0 3.2 0.00 0.00 0.00 100 1005.6
20260507044519 9 115 0.0 1.6 0.00 0.00 0.00 100 1006.0
20260507043023 9 115 0.0 1.6 0.00 0.00 0.00 100 1005.5
20260507041513 10 115 0.0 1.6 0.00 0.00 0.00 100 1005.4
20260507040012 10 115 0.0 1.6 0.00 0.00 0.00 100 1005.4
20260507034558 10 115 0.0 3.2 0.00 0.00 0.00 100 1005.2
20260507033055 11 115 0.0 1.6 0.00 0.00 0.00 100 1005.1
20260507031551 11 115 0.0 0.0 0.00 0.00 0.00 100 1004.4
20260507030052 11 115 0.0 4.8 0.00 0.00 0.00 100 1004.3
20260507024554 11 115 0.0 4.8 0.00 0.00 0.00 100 1004.3
20260507023104 12 115 1.6 11.3 0.00 0.00 0.00 100 1004.3
20260507021551 12 115 0.0 3.2 0.00 0.00 0.00 100 1004.4
20260507020057 12 115 1.6 11.3 0.00 0.00 0.00 100 1004.2
20260507014539 12 115 1.6 11.3 0.00 0.00 0.00 100 1004.2
20260507013038 12 115 0.0 9.7 0.00 0.00 0.00 100 1004.3
20260507011543 12 115 1.6 12.9 0.00 0.00 0.00 100 1004.5
20260507010036 12 115 1.6 14.5 0.00 0.00 0.00 100 1004.7
20260507004532 12 115 0.0 14.5 0.00 0.00 0.00 100 1005.0
20260507003031 12 115 3.2 16.1 0.00 0.00 0.00 100 1005.0
20260507001601 12 115 0.0 12.9 0.00 0.00 0.00 100 1005.0
20260507000037 12 115 1.6 14.5 0.00 0.00 0.00 100 1005.0
20260506234517 12 115 0.0 8.0 0.00 0.00 0.00 100 1005.2
20260506233018 12 115 0.0 8.0 0.00 0.00 0.00 100 1005.2
20260506231517 12 115 0.0 6.4 0.00 0.00 0.00 100 1005.4
20260506230014 12 115 0.0 12.9 0.00 0.00 0.00 100 1005.5
20260506224512 12 115 0.0 9.7 0.00 0.00 0.00 100 1005.7
20260506223011 12 115 0.0 8.0 0.00 0.00 0.00 100 1005.8
20260506221510 12 115 3.2 16.1 0.00 0.00 0.00 100 1005.9
20260506220009 12 115 1.6 12.9 0.00 0.00 0.00 100 1006.0
20260506214557 12 115 1.6 11.3 0.00 0.00 0.00 100 1006.2
20260506213102 12 115 1.6 6.4 0.00 0.00 0.00 100 1006.2
20260506211556 12 115 1.6 16.1 0.00 0.00 0.00 100 1005.9
20260506210059 12 115 0.0 8.0 0.00 0.00 0.00 100 1006.1
20260506204556 12 115 0.0 8.0 0.00 0.00 0.00 100 1006.2
20260506203108 12 115 0.0 8.0 0.00 0.00 0.00 100 1006.4
20260506201551 12 115 1.6 8.0 0.00 0.00 0.00 100 1006.3
20260506200054 12 115 0.0 4.8 0.00 0.00 0.00 100 1006.4
20260506194548 12 115 1.6 12.9 0.00 0.00 0.00 100 1006.5
20260506193041 12 115 3.2 12.9 0.00 0.00 0.00 100 1006.8
20260506191534 12 115 0.0 14.5 0.00 0.00 0.00 99 1007.1
20260506190034 12 115 1.6 11.3 0.00 0.00 0.00 99 1006.8
20260506184537 13 115 0.0 6.4 0.00 0.00 0.00 98 1006.7
20260506183030 13 115 0.0 11.3 0.00 0.00 0.00 96 1006.9
20260506181538 13 115 0.0 1.6 0.00 0.03 0.00 94 1007.0
20260506180029 15 115 0.0 6.4 0.00 0.03 0.00 91 1007.0
20260506174532 15 115 0.0 6.4 0.00 0.03 0.00 89 1007.3
20260506173007 15 115 0.0 12.9 0.00 0.03 0.00 87 1007.6
20260506171505 15 115 1.6 14.5 0.00 0.03 0.00 85 1007.9
20260506170106 15 115 0.0 9.7 0.00 0.03 0.00 85 1008.0
20260506164615 15 115 0.0 3.2 0.00 0.03 0.00 85 1008.6
20260506163101 15 115 0.0 4.8 0.00 0.03 0.00 85 1008.7
20260506161555 15 115 0.0 6.4 0.00 0.03 0.00 85 1009.1
20260506154555 16 115 0.0 8.0 0.00 0.03 0.00 84 1009.2
20260506153052 16 115 1.6 11.3 0.00 0.03 0.00 83 1009.2
20260506151553 16 115 0.0 3.2 0.00 0.03 0.00 83 1009.0
20260506150031 15 115 0.0 4.8 0.00 0.03 0.00 84 1008.9
20260506144530 15 115 0.0 6.4 0.00 0.03 0.00 84 1008.8
20260506143014 15 115 0.0 6.4 0.00 0.03 0.00 85 1009.2
20260506141524 14 115 0.0 1.6 0.00 0.03 0.00 85 1009.6
20260506140013 14 115 3.2 12.9 0.00 0.03 0.00 85 1009.6
20260506134511 14 115 0.0 1.6 0.00 0.03 0.00 84 1009.6
20260506133011 14 115 0.0 1.6 0.00 0.03 0.00 83 1009.6
20260506131511 14 115 0.0 1.6 0.00 0.03 0.00 84 1009.5
20260506130008 14 115 0.0 4.8 0.00 0.03 0.00 83 1009.7
20260506124506 14 115 0.0 4.8 0.00 0.03 0.00 85 1009.8
20260506123051 13 115 0.0 4.8 0.00 0.03 0.00 84 1010.2
20260506121555 13 115 0.0 3.2 0.00 0.03 0.00 86 1010.5
20260506120150 13 115 0.0 3.2 0.00 0.03 0.00 86 1010.2
20260506114548 13 115 1.6 6.4 0.00 0.03 0.00 86 1010.3
20260506113047 12 115 0.0 0.0 0.00 0.03 0.00 88 1010.4
20260506111549 12 115 0.0 0.0 0.00 0.03 0.00 88 1010.4
20260506110057 12 115 0.0 0.0 0.00 0.03 0.00 90 1010.4
20260506104558 11 115 0.0 0.0 0.00 0.03 0.00 90 1010.3
20260506103042 11 115 0.0 0.0 0.00 0.03 0.00 94 1010.4
20260506101534 10 115 0.0 0.0 0.00 0.03 0.00 95 1010.6
20260506100031 10 115 0.0 0.0 0.00 0.03 0.00 94 1010.5